Погода в Альмуньекаре

Испания     36°44′13″N   3°41′20″W
темп.,
°C
ветер,
м/с
пор.,
м/с
влажн.,
%
обл.,
%
осадки,
мм/ч
давл.,
гПа
погр.,
м
23 октября, сб
сб2323:00+17в688311 0.7 1018467
02:00+17в468296 4.5 1019448
05:00+18юз217095 1.4 1018286
08:00+17зюз11745 1.4 1019276
11:00+18ю21707 0.0 1021324
14:00+17ю21728 0.1 1021269
17:00+18вюв127011 0.1 1020295
20:00+18юв347621 0.1 1021574
24 октября, вс
вс2423:00+18вюв237635 0.1 1023651
02:00+18вюв337530 0.2 1022652
05:00+18вюв227616 0.0 1022421
08:00+17всв12756 0.0 1022368
11:00+18вюв22722 0.0 1024420
14:00+18юв337712 0.0 1023488
17:00+18юв3377100 0.0 1021406
20:00+18вюв2278100 0.0 1022273
25 октября, пн
пн2523:00+18св117588 0.0 1023243
02:00+18св11775 0.0 1022240
05:00+17вюв127840 0.0 1021317
08:00+17св238121 0.0 1021400
11:00+18вюв227695 0.0 1022393
14:00+18юв4376100 0.0 1021518
17:00+18юв3376100 0.0 1019412
20:00+18в2275100 0.0 1020445
26 октября, вт
вт2623:00+18ююв1273100 0.0 1021514
02:00+18вюв1272100 0.0 1020638
05:00+18ююв1171100 0.0 1019379
08:00+17в1276100 0.0 1020534
11:00+17юз0174100 0.0 1021510
14:00+17ююв3277100 0.0 1020345
17:00+18вюв2272100 0.0 1019501
20:00+18сз0174100 0.0 102048
27 октября, ср
ср2723:00+18ссз2174100 0.0 1021102
02:00+18зсз217676 0.0 1021267
05:00+17ссв007518 0.0 1020362
08:00+17ссз21713 0.0 1020109
11:00+18ю21710 0.0 1021292
14:00+18ююз337726 0.0 1020335
17:00+17ююз2276100 0.0 1019232
20:00+17ссз22768 0.0 1020135